This is the latest recevied weather packets stored in our database for station/object XE2MEM-21. If no packets are shown the sender has not sent any weather packets the latest 10 day(s).
| Time | Temp. | Humidity | Pressure | Rain* | Wind** | Luminosity | Snow |
|---|---|---|---|---|---|---|---|
| 1777650868 | 28.33° C | 100% | 1004.5 hPa | - | - | - | - |
| 1777649968 | 28.33° C | 100% | 1004.4 hPa | - | - | - | - |
| 1777649068 | 27.78° C | 100% | 1004.4 hPa | - | - | - | - |
| 1777648168 | 27.78° C | 100% | 1004.7 hPa | - | - | - | - |
| 1777647268 | 27.78° C | 100% | 1004.9 hPa | - | - | - | - |
| 1777646368 | 28.33° C | 100% | 1004.7 hPa | - | - | - | - |
| 1777645468 | 28.33° C | 100% | 1004.5 hPa | - | - | - | - |
| 1777644567 | 27.78° C | 100% | 1004.6 hPa | - | - | - | - |
| 1777643667 | 27.22° C | 100% | 1004.4 hPa | - | - | - | - |
| 1777642767 | 27.22° C | 100% | 1004.6 hPa | - | - | - | - |
| 1777641867 | 27.22° C | 100% | 1004.5 hPa | - | - | - | - |
| 1777640967 | 26.67° C | 100% | 1004.2 hPa | - | - | - | - |
| 1777640067 | 25.56° C | 100% | 1004.4 hPa | - | - | - | - |
| 1777639167 | 25.56° C | 100% | 1004.4 hPa | - | - | - | - |
| 1777638267 | 25.56° C | 100% | 1004 hPa | - | - | - | - |
| 1777637372 | 25.56° C | 100% | 1004.1 hPa | - | - | - | - |
| 1777636465 | 25.56° C | 100% | 1003.9 hPa | - | - | - | - |
| 1777635565 | 25.56° C | 100% | 1004.1 hPa | - | - | - | - |
| 1777631584 | 25.56° C | 100% | 1003.6 hPa | - | - | - | - |
| 1777630684 | 25.56° C | 100% | 1003.7 hPa | - | - | - | - |
| 1777630367 | 25.56° C | 100% | 1003.8 hPa | - | - | - | - |
| 1777629466 | 25.56° C | 100% | 1003.5 hPa | - | - | - | - |
| 1777628963 | 26.11° C | 100% | 1003.6 hPa | - | - | - | - |
| 1777628063 | 25.56° C | 100% | 1003.6 hPa | - | - | - | - |
| 1777627163 | 26.11° C | 100% | 1003.6 hPa | - | - | - | - |
* Rain since midnight (hover to see other rain measurements)
** Current wind speed in m/s (hover to see current wind gust speed)